CZ-6A R/B

Satellite information

Favourite Embed

Satellite Type and Status

ROCKET BODYIN ORBIT

Key statistics

Satellite CZ-6A R/B at a glance.

Uptime

1128

Days in orbit

Revolutions

≈ 14.1

Per day

Orbit

SSO

Sun Synchronous Orbit

Inclination

98.8

Latest

Satellite identification and parameters

Extended collection of information and parameters for CZ-6A R/B.

Object identification

Identified? True

Debris? False

Object name: CZ-6A R/B

International designator: 2022-151B

Object number (NORAD): 54236

Object ID (CCSDS): 54236

Country: PEOPLES REPUBLIC OF CHINA (PRC)

Current information (Y/N): Y

RCS size: LARGE

Orbital parameters

Period: 102.181 minutes

Inclination: 98.8469 deg

SMA: 7240.021 km

Apoapsis: 895.073 km

Periapsis: 828.698 km

RAAN: 344.9125 deg

Eccentricy: 0.00458393

Argument of periapsis: 150.8249 deg

Mean anomaly: 209.5496 deg

Mean motion: 14.0926626 rev/day

Mean motion (dot): 0.00000021 rev/day2

B* drag term: 0.000036674121 1/REarth

Two-line elements (TLE)

Creation date: Dec. 11, 2025, 7:14 p.m.

Reference frame: TEME

Reference center: EARTH

Epoch: Dec. 11, 2025, 2:54 p.m. UTC

TLE line 0: 0 CZ-6A R/B

TLE line 1: 1 54236U 22151B 25345.62148354 .00000021 00000-0 36674-4 0 9996

TLE line 2: 2 54236 98.8469 344.9125 0045839 150.8249 209.5496 14.09266260158221

Live tracking on map

Real-time ground track for satellite CZ-6A R/B.

In-orbit conjunctions

A list of the most updated potential collisions computed for object CZ-6A R/B.

Target Orbit TCA Probability of collision Miss distance Type
COSMOS 1275 DEB LEO 2025-11-25 10:51:03 0.000288464 69.0 (m) DEBRIS
CZ-2D DEB SSO 2025-09-01 03:27:21 0.0001032053 427.0 (m) DEBRIS
CZ-6A DEB LEO 2025-05-20 00:16:22 0.001354943 51.0 (m) DEBRIS
CZ-6A DEB LEO 2025-04-30 13:47:01 0.0001122795 817.0 (m) DEBRIS
CZ-6A DEB SSO 2024-11-21 05:02:51 0.0001433951 585.0 (m) DEBRIS

Associated space launch

Chinese satellite reported for atmospheric/ocean/environmental/spatial parameter research purposes, details TBD.

CZ-6A R/B was lifted into orbit during the mission ‘Long March 6A | Yunhai 3’, on board a Long March 6A space rocket.

The launch took place on Nov. 11, 2022, 10:52 p.m. from Launch Complex 9A.

For more information about the launch, click the button.

Launch to space Long March 6A | Yunhai 3
Long March 6A | Yunhai 3

Agency: N/A

Status: Launch Successful

Launch date: Nov. 11, 2022, 10:52 p.m. UTC

Rocket: Long March 6A

Launch pad: Launch Complex 9A

Location: Taiyuan Satellite Launch Center, People's Republic of China

...

Latest news about this satellite

There are no fresh news available about this satellite. Check back as we update our databases every day.


Newsletter sign-up

Weekly statistics, charts and insights to help you stay on top of the space industry.